Time,TemperatureF,DewpointF,PressureIn,WindDirection,WindDirectionDegrees,WindSpeedMPH,WindSpeedGustMPH,Humidity,HourlyPrecipIn,Conditions,Clouds,dailyrainin,SolarRadiationWatts/m^2,SoftwareType,DateUTC
2013-05-29 00:14:00,52.7,44.0,30.06,North,5,11.0,20.0,71,0.00,,,0.25,0,weatherlink.com 1.10,2013-05-29 06:14:00,
2013-05-29 00:29:00,52.3,42.0,30.07,North,355,13.0,21.0,68,0.00,,,0.25,0,weatherlink.com 1.10,2013-05-29 06:29:00,
2013-05-29 00:44:00,52.3,42.0,30.07,NNE,33,17.0,22.0,69,0.00,,,0.25,0,weatherlink.com 1.10,2013-05-29 06:44:00,
2013-05-29 00:59:00,52.1,41.0,30.06,NNE,17,16.0,19.0,66,0.00,,,0.25,0,weatherlink.com 1.10,2013-05-29 06:59:00,
2013-05-29 01:14:00,51.5,41.0,30.06,NNE,31,12.0,16.0,68,0.00,,,0.25,0,weatherlink.com 1.10,2013-05-29 07:14:00,
2013-05-29 01:29:00,51.0,41.0,30.06,NNE,26,5.0,14.0,68,0.00,,,0.25,0,weatherlink.com 1.10,2013-05-29 07:29:00,
2013-05-29 01:44:00,50.8,41.0,30.06,NNE,24,8.0,12.0,68,0.00,,,0.25,0,weatherlink.com 1.10,2013-05-29 07:44:00,
2013-05-29 01:59:00,50.2,41.0,30.05,North,360,7.0,12.0,70,0.00,,,0.25,0,weatherlink.com 1.10,2013-05-29 07:59:00,
2013-05-29 02:14:00,49.7,41.0,30.05,NNE,15,9.0,11.0,73,0.00,,,0.00,0,weatherlink.com 1.10,2013-05-29 08:14:00,
2013-05-29 02:29:00,49.0,41.0,30.05,NE,34,11.0,12.0,75,0.00,,,0.00,0,weatherlink.com 1.10,2013-05-29 08:29:00,
2013-05-29 02:44:00,49.0,41.0,30.05,NNE,26,10.0,13.0,75,0.00,,,0.00,0,weatherlink.com 1.10,2013-05-29 08:44:00,
2013-05-29 02:59:00,49.0,42.0,30.05,NNE,25,9.0,13.0,76,0.00,,,0.00,0,weatherlink.com 1.10,2013-05-29 08:59:00,
2013-05-29 03:14:00,48.7,41.0,30.04,NE,36,9.0,11.0,76,0.00,,,0.00,0,weatherlink.com 1.10,2013-05-29 09:14:00,
2013-05-29 03:29:00,48.5,41.0,30.04,NE,43,11.0,13.0,76,0.00,,,0.00,0,weatherlink.com 1.10,2013-05-29 09:29:00,
2013-05-29 03:44:00,48.7,41.0,30.03,NE,41,9.0,12.0,75,0.00,,,0.00,0,weatherlink.com 1.10,2013-05-29 09:44:00,
2013-05-29 03:59:00,48.2,41.0,30.03,NNE,22,10.0,12.0,76,0.00,,,0.00,0,weatherlink.com 1.10,2013-05-29 09:59:00,
2013-05-29 04:14:00,47.4,41.0,30.03,NNE,18,13.0,15.0,77,0.00,,,0.00,0,weatherlink.com 1.10,2013-05-29 10:14:00,
2013-05-29 04:29:00,47.2,40.0,30.03,NNE,17,10.0,13.0,77,0.00,,,0.00,0,weatherlink.com 1.10,2013-05-29 10:29:00,
2013-05-29 04:44:00,46.7,40.0,30.02,NNE,17,12.0,14.0,78,0.00,,,0.00,0,weatherlink.com 1.10,2013-05-29 10:44:00,
2013-05-29 04:59:00,46.2,40.0,30.02,NNE,18,11.0,16.0,79,0.00,,,0.00,0,weatherlink.com 1.10,2013-05-29 10:59:00,
2013-05-29 05:14:00,45.2,40.0,30.02,NNE,31,10.0,11.0,83,0.00,,,0.00,0,weatherlink.com 1.10,2013-05-29 11:14:00,
2013-05-29 05:29:00,45.6,40.0,30.01,NNE,22,10.0,12.0,81,0.00,,,0.00,0,weatherlink.com 1.10,2013-05-29 11:29:00,
2013-05-29 05:44:00,45.1,40.0,30.01,NNE,13,9.0,12.0,81,0.00,,,0.00,0,weatherlink.com 1.10,2013-05-29 11:44:00,
2013-05-29 05:59:00,44.3,40.0,30.01,NNE,24,6.0,9.0,84,0.00,,,0.00,7,weatherlink.com 1.10,2013-05-29 11:59:00,
2013-05-29 06:14:00,43.8,40.0,30.01,ENE,60,5.0,6.0,85,0.00,,,0.00,14,weatherlink.com 1.10,2013-05-29 12:14:00,
2013-05-29 06:29:00,44.0,40.0,30.01,NE,48,3.0,4.0,85,0.00,,,0.00,33,weatherlink.com 1.10,2013-05-29 12:29:00,
2013-05-29 06:45:00,44.1,40.0,30.01,NNE,30,3.0,4.0,86,0.00,,,0.00,54,weatherlink.com 1.10,2013-05-29 12:45:00,
2013-05-29 07:00:00,44.5,41.0,30.01,NNE,16,6.0,6.0,86,0.00,,,0.00,169,weatherlink.com 1.10,2013-05-29 13:00:00,
2013-05-29 07:15:00,44.8,41.0,30.01,NNE,24,7.0,9.0,86,0.00,,,0.00,134,weatherlink.com 1.10,2013-05-29 13:15:00,
2013-05-29 07:30:00,44.7,41.0,30.01,North,355,6.0,8.0,87,0.00,,,0.00,109,weatherlink.com 1.10,2013-05-29 13:30:00,
2013-05-29 07:45:00,44.6,40.0,30.02,NNW,342,6.0,7.0,85,0.00,,,0.00,81,weatherlink.com 1.10,2013-05-29 13:45:00,
2013-05-29 08:00:00,44.6,41.0,30.02,North,5,4.0,5.0,86,0.00,,,0.00,139,weatherlink.com 1.10,2013-05-29 14:00:00,
2013-05-29 08:15:00,45.6,40.0,30.02,North,5,5.0,9.0,82,0.00,,,0.00,397,weatherlink.com 1.10,2013-05-29 14:15:00,
2013-05-29 08:30:00,45.9,41.0,30.02,NNE,18,4.0,7.0,82,0.00,,,0.00,411,weatherlink.com 1.10,2013-05-29 14:30:00,
2013-05-29 08:45:00,47.1,42.0,30.02,NNE,22,3.0,7.0,81,0.00,,,0.00,345,weatherlink.com 1.10,2013-05-29 14:45:00,
2013-05-29 09:00:00,48.2,42.0,30.01,North,10,3.0,4.0,79,0.00,,,0.00,439,weatherlink.com 1.10,2013-05-29 15:00:00,
2013-05-29 09:15:00,48.8,42.0,30.01,North,351,0.0,5.0,77,0.00,,,0.00,508,weatherlink.com 1.10,2013-05-29 15:15:00,
2013-05-29 09:30:00,49.4,42.0,30.00,NNW,342,3.0,6.0,77,0.00,,,0.00,522,weatherlink.com 1.10,2013-05-29 15:30:00,
2013-05-29 09:45:00,50.5,43.0,29.99,North,11,0.0,5.0,76,0.00,,,0.00,571,weatherlink.com 1.10,2013-05-29 15:45:00,
2013-05-29 10:00:00,51.0,43.0,29.98,WSW,244,0.0,7.0,73,0.00,,,0.00,666,weatherlink.com 1.10,2013-05-29 16:00:00,
2013-05-29 10:15:00,51.6,42.0,29.98,SSW,198,1.0,7.0,70,0.00,,,0.00,599,weatherlink.com 1.10,2013-05-29 16:15:00,
2013-05-29 10:30:00,52.1,42.0,29.97,WSW,246,4.0,8.0,69,0.00,,,0.00,550,weatherlink.com 1.10,2013-05-29 16:30:00,
2013-05-29 10:45:00,53.1,42.0,29.97,South,175,1.0,6.0,65,0.00,,,0.00,772,weatherlink.com 1.10,2013-05-29 16:45:00,
2013-05-29 11:00:00,54.2,42.0,29.96,SSW,199,4.0,7.0,63,0.00,,,0.00,803,weatherlink.com 1.10,2013-05-29 17:00:00,
2013-05-29 11:15:00,55.5,41.0,29.96,SW,227,3.0,7.0,58,0.00,,,0.00,756,weatherlink.com 1.10,2013-05-29 17:15:00,
2013-05-29 11:30:00,56.1,40.0,29.95,SW,227,4.0,7.0,55,0.00,,,0.00,814,weatherlink.com 1.10,2013-05-29 17:30:00,
2013-05-29 11:45:00,56.5,39.0,29.95,SW,223,7.0,13.0,52,0.00,,,0.00,828,weatherlink.com 1.10,2013-05-29 17:45:00,
2013-05-29 12:00:00,57.5,39.0,29.95,South,188,7.0,9.0,50,0.00,,,0.00,795,weatherlink.com 1.10,2013-05-29 18:00:00,
2013-05-29 12:15:00,57.8,40.0,29.95,West,269,2.0,8.0,51,0.00,,,0.00,782,weatherlink.com 1.10,2013-05-29 18:15:00,
2013-05-29 12:31:00,58.3,38.0,29.94,West,263,3.0,10.0,47,0.00,,,0.00,902,weatherlink.com 1.10,2013-05-29 18:31:00,
2013-05-29 12:46:00,59.4,39.0,29.93,South,188,4.0,10.0,47,0.00,,,0.00,909,weatherlink.com 1.10,2013-05-29 18:46:00,
2013-05-29 13:01:00,59.8,39.0,29.92,SSW,196,1.0,13.0,46,0.00,,,0.00,932,weatherlink.com 1.10,2013-05-29 19:01:00,
2013-05-29 13:16:00,60.8,38.0,29.92,WSW,238,7.0,13.0,43,0.00,,,0.00,937,weatherlink.com 1.10,2013-05-29 19:16:00,
2013-05-29 13:31:00,61.4,38.0,29.91,SSW,209,0.0,6.0,42,0.00,,,0.00,930,weatherlink.com 1.10,2013-05-29 19:31:00,
2013-05-29 13:46:00,61.6,38.0,29.91,SW,232,4.0,12.0,42,0.00,,,0.00,956,weatherlink.com 1.10,2013-05-29 19:46:00,
2013-05-29 14:01:00,62.1,37.0,29.90,WSW,250,6.0,10.0,40,0.00,,,0.00,870,weatherlink.com 1.10,2013-05-29 20:01:00,
2013-05-29 14:16:00,63.5,38.0,29.89,WSW,249,6.0,8.0,39,0.00,,,0.00,921,weatherlink.com 1.10,2013-05-29 20:16:00,
2013-05-29 14:31:00,63.2,38.0,29.89,SW,229,10.0,12.0,39,0.00,,,0.00,926,weatherlink.com 1.10,2013-05-29 20:31:00,
2013-05-29 14:46:00,63.7,37.0,29.88,West,269,7.0,8.0,38,0.00,,,0.00,891,weatherlink.com 1.10,2013-05-29 20:46:00,
2013-05-29 15:01:00,64.3,39.0,29.88,WSW,254,4.0,9.0,40,0.00,,,0.00,872,weatherlink.com 1.10,2013-05-29 21:01:00,
2013-05-29 15:16:00,64.0,37.0,29.87,WNW,283,2.0,9.0,37,0.00,,,0.00,696,weatherlink.com 1.10,2013-05-29 21:16:00,
2013-05-29 15:31:00,64.6,37.0,29.87,NW,324,4.0,8.0,36,0.00,,,0.00,900,weatherlink.com 1.10,2013-05-29 21:31:00,
2013-05-29 15:46:00,65.3,36.0,29.87,SW,236,6.0,10.0,34,0.00,,,0.00,772,weatherlink.com 1.10,2013-05-29 21:46:00,
2013-05-29 16:01:00,65.9,38.0,29.86,West,266,7.0,10.0,36,0.00,,,0.00,816,weatherlink.com 1.10,2013-05-29 22:01:00,
2013-05-29 16:16:00,65.5,37.0,29.86,NW,323,4.0,13.0,35,0.00,,,0.00,800,weatherlink.com 1.10,2013-05-29 22:16:00,
2013-05-29 16:31:00,66.3,36.0,29.86,NNW,334,7.0,12.0,33,0.00,,,0.00,740,weatherlink.com 1.10,2013-05-29 22:31:00,
2013-05-29 16:46:00,66.4,37.0,29.86,North,360,12.0,15.0,34,0.00,,,0.00,777,weatherlink.com 1.10,2013-05-29 22:46:00,
2013-05-29 17:01:00,66.6,37.0,29.86,NW,309,9.0,12.0,34,0.00,,,0.00,673,weatherlink.com 1.10,2013-05-29 23:01:00,
2013-05-29 17:16:00,66.0,39.0,29.85,NNW,329,8.0,15.0,37,0.00,,,0.00,575,weatherlink.com 1.10,2013-05-29 23:16:00,
2013-05-29 17:31:00,64.5,36.0,29.85,NNW,335,9.0,12.0,35,0.00,,,0.00,253,weatherlink.com 1.10,2013-05-29 23:31:00,
2013-05-29 18:01:00,65.0,39.0,29.85,NNW,340,9.0,13.0,38,0.00,,,0.00,186,weatherlink.com 1.10,2013-05-30 00:01:00,
2013-05-29 18:16:00,64.4,38.0,29.85,NNW,345,13.0,15.0,38,0.00,,,0.00,163,weatherlink.com 1.10,2013-05-30 00:16:00,
2013-05-29 18:31:00,62.3,39.0,29.86,NNW,333,17.0,26.0,42,0.00,,,0.00,156,weatherlink.com 1.10,2013-05-30 00:31:00,
2013-05-29 18:46:00,57.6,43.0,29.88,NNW,348,31.0,34.0,58,0.00,,,0.00,176,weatherlink.com 1.10,2013-05-30 00:46:00,
2013-05-29 19:01:00,56.8,41.0,29.89,North,360,26.0,39.0,56,0.00,,,0.00,202,weatherlink.com 1.10,2013-05-30 01:01:00,
2013-05-29 19:16:00,57.1,40.0,29.90,North,350,35.0,37.0,53,0.00,,,0.00,278,weatherlink.com 1.10,2013-05-30 01:16:00,
2013-05-29 19:31:00,55.6,40.0,29.91,North,360,34.0,35.0,56,0.00,,,0.00,251,weatherlink.com 1.10,2013-05-30 01:31:00,
2013-05-29 19:46:00,54.4,39.0,29.91,North,350,23.0,35.0,56,0.00,,,0.00,134,weatherlink.com 1.10,2013-05-30 01:46:00,
2013-05-29 20:01:00,54.2,39.0,29.92,NNE,15,19.0,31.0,56,0.00,,,0.00,104,weatherlink.com 1.10,2013-05-30 02:01:00,
2013-05-29 20:16:00,54.4,38.0,29.94,North,351,5.0,16.0,54,0.00,,,0.00,42,weatherlink.com 1.10,2013-05-30 02:16:00,
2013-05-29 20:31:00,55.1,38.0,29.97,East,82,5.0,9.0,53,0.00,,,0.00,11,weatherlink.com 1.10,2013-05-30 02:31:00,
2013-05-29 20:46:00,-999.0,-99.9,29.99,North,-999,-999.0,-999.0,-999,0.00,,,0.00,,weatherlink.com 1.10,2013-05-30 02:46:00,
2013-05-29 21:02:00,52.0,42.0,30.00,SSE,154,1.0,16.0,69,0.04,,,0.04,0,weatherlink.com 1.10,2013-05-30 03:02:00,
2013-05-29 21:17:00,50.5,41.0,30.01,NNE,23,9.0,12.0,71,0.05,,,0.05,0,weatherlink.com 1.10,2013-05-30 03:17:00,
2013-05-29 21:32:00,49.0,42.0,30.02,NE,46,17.0,20.0,76,0.05,,,0.05,0,weatherlink.com 1.10,2013-05-30 03:32:00,
2013-05-29 21:47:00,49.8,40.0,30.03,North,10,17.0,24.0,69,0.05,,,0.05,0,weatherlink.com 1.10,2013-05-30 03:47:00,
2013-05-29 22:02:00,48.7,40.0,30.04,NNE,24,19.0,25.0,73,0.01,,,0.05,0,weatherlink.com 1.10,2013-05-30 04:02:00,
2013-05-29 22:17:00,49.1,40.0,30.04,NNE,22,18.0,20.0,72,0.00,,,0.05,0,weatherlink.com 1.10,2013-05-30 04:17:00,
2013-05-29 22:32:00,49.3,40.0,30.05,NNE,12,14.0,20.0,70,0.00,,,0.05,0,weatherlink.com 1.10,2013-05-30 04:32:00,
2013-05-29 22:47:00,49.3,41.0,30.05,North,5,13.0,17.0,72,0.00,,,0.05,0,weatherlink.com 1.10,2013-05-30 04:47:00,
2013-05-29 23:02:00,49.4,40.0,30.05,NNE,20,7.0,13.0,70,0.00,,,0.05,0,weatherlink.com 1.10,2013-05-30 05:02:00,
2013-05-29 23:17:00,49.2,41.0,30.06,North,355,5.0,9.0,72,0.00,,,0.05,0,weatherlink.com 1.10,2013-05-30 05:17:00,
2013-05-29 23:32:00,48.4,42.0,30.07,North,5,5.0,13.0,77,0.00,,,0.05,0,weatherlink.com 1.10,2013-05-30 05:32:00,
2013-05-29 23:48:00,48.6,40.0,30.08,NE,38,10.0,12.0,73,0.00,,,0.05,0,weatherlink.com 1.10,2013-05-30 05:48:00,